User: anonymous   Login
Location: Franzen
(48.6167°N, 15.3833°E)
Time: 23:56:52
(UTC+00:00)
Language:

Cosmos 1408 Rocket - Orbit

View from above orbital plane
View from above orbital plane
View from above satellite
View from above satellite

Ground track
Ground track

The orbit data is extracted from the following two-line orbital elements,

1 13553U 82092B   21172.67307883  .00000070  00000-0  54203-5 0  9999
2 13553  82.5687 308.5399 0020015 239.4151 131.2871 14.84278113 94415
Epoch (UTC): 21 June 2021 16:09:14
Eccentricity: 0.0020015
inclination: 82.5687°
perigee height: 602 km
apogee height: 630 km
right ascension of ascending node: 308.5399°
argument of perigee: 239.4151°
revolutions per day: 14.84278113
mean anomaly at epoch: 131.2871°
orbit number at epoch: 9441

The dashed part of the orbit path shows where the satellite is in the earth's shadow,  

DLR